Belmar-Farmingdale, NJ

4:41 AM EST on December 11, 2019 (GMT -0500)
Allaire

Weather History for KBLM - November, 2019

Change the Weather History Date:

Sunday, November 17, 2019

  Actual Average Record
Temperature  
Mean Temperature 38 °F -  
Max Temperature 42 °F 51 °F 64 °F (2006)
Min Temperature 34 °F 36 °F 26 °F (1996)
Degree Days  
Heating Degree Days 27    
Moisture  
Dew Point 30 °F    
Average Humidity 71    
Maximum Humidity 79    
Minimum Humidity 44    
Precipitation  
Precipitation 0.00 in - - ()
Sea Level Pressure  
Sea Level Pressure 30.22 in    
Wind  
Wind Speed 12 mph ()    
Max Wind Speed 16 mph    
Max Gust Speed 25 mph    
Visibility 10.0 miles    
Events Rain    
Averages and records for this station are not official NWS values.
T = Trace of Precipitation, MM = Missing Value Source: Averaged Metar Reports

Daily Weather History Graph

Daily Weather History Graph

Search for Another Location

Airport or City:

Astronomy

Nov. 17, 2019 Rise Set
Actual Time 6:44 AM EST 4:38 PM EST
Civil Twilight 6:14 AM EST 5:07 PM EST
Nautical Twilight 5:41 AM EST 5:40 PM EST
Astronomical Twilight 5:09 AM EST 6:12 PM EST
Moon 9:11 PM EST (11/17) 11:27 AM EST (11/17)
Length of Visible Light 10h 52m
Length of Day
9h 54m
Waning Gibbous, 73% of the Moon is Illuminated
Nov 17
Waning Gibbous
Nov 19
Last Quarter
Nov 26
New
Dec 4
First Quarter
Dec 12
Full

Hourly Weather History & Observations

Time (EST) Temp. Windchill Dew Point Humidity Pressure Visibility Wind Dir Wind Speed Gust Speed Precip Events Conditions
12:56 AM 36.0 °F 27.1 °F 16.0 °F 44% 30.39 in 10.0 mi NE 13.8 mph 20.7 mph N/A   Overcast
1:56 AM 35.1 °F 25.9 °F 18.0 °F 50% 30.38 in 10.0 mi NNE 13.8 mph - N/A   Overcast
2:56 AM 35.1 °F 25.2 °F 19.9 °F 54% 30.36 in 10.0 mi NNE 16.1 mph 20.7 mph N/A   Overcast
3:56 AM 34.0 °F 25.5 °F 21.0 °F 59% 30.35 in 10.0 mi NNE 11.5 mph 19.6 mph N/A   Overcast
4:56 AM 34.0 °F 26.0 °F 23.0 °F 64% 30.34 in 10.0 mi NNE 10.4 mph 19.6 mph N/A   Overcast
5:56 AM 34.0 °F 24.6 °F 24.1 °F 67% 30.33 in 10.0 mi NNE 13.8 mph 21.9 mph 0.00 in Rain Light Rain
6:56 AM 34.0 °F 25.5 °F 25.0 °F 70% 30.33 in 10.0 mi NNE 11.5 mph 18.4 mph 0.00 in Rain Light Rain
7:56 AM 36.0 °F 27.5 °F 28.0 °F 73% 30.33 in 10.0 mi NNE 12.7 mph 20.7 mph 0.00 in   Overcast
8:56 AM 37.9 °F 29.2 °F 30.9 °F 76% 30.32 in 10.0 mi NNE 15.0 mph 25.3 mph N/A   Overcast
9:56 AM 39.0 °F 30.6 °F 33.1 °F 79% 30.30 in 10.0 mi NNE 15.0 mph 24.2 mph 0.00 in Rain Light Rain
10:56 AM 39.9 °F 32.1 °F 33.1 °F 77% 30.27 in 10.0 mi NNE 13.8 mph 21.9 mph 0.00 in   Overcast
11:56 AM 41.0 °F 33.1 °F 34.0 °F 76% 30.25 in 10.0 mi NNE 15.0 mph 24.2 mph N/A   Overcast
12:56 PM 42.1 °F 34.2 °F 35.1 °F 76% 30.22 in 10.0 mi NE 16.1 mph 23.0 mph N/A   Overcast
1:56 PM 41.0 °F 33.1 °F 34.0 °F 76% 30.19 in 10.0 mi NNE 15.0 mph 23.0 mph N/A   Overcast
2:56 PM 41.0 °F 33.5 °F 34.0 °F 76% 30.17 in 10.0 mi NE 13.8 mph 23.0 mph N/A   Overcast
3:56 PM 42.1 °F 35.2 °F 35.1 °F 76% 30.15 in 10.0 mi NNE 12.7 mph 23.0 mph N/A   Overcast
4:56 PM 41.0 °F 33.1 °F 34.0 °F 76% 30.14 in 10.0 mi NNE 15.0 mph 24.2 mph N/A   Overcast
5:56 PM 42.1 °F 34.5 °F 34.0 °F 73% 30.13 in 10.0 mi NNE 15.0 mph 23.0 mph N/A   Overcast
6:56 PM 41.0 °F 33.9 °F 34.0 °F 76% 30.12 in 10.0 mi NNE 12.7 mph - N/A   Overcast
7:56 PM 41.0 °F 33.1 °F 34.0 °F 76% 30.09 in 10.0 mi NNE 15.0 mph - N/A   Overcast
8:56 PM 41.0 °F 32.8 °F 34.0 °F 76% 30.07 in 10.0 mi NNE 16.1 mph 21.9 mph N/A   Overcast
9:56 PM 39.9 °F 32.1 °F 33.1 °F 77% 30.05 in 10.0 mi NNE 13.8 mph 23.0 mph N/A   Overcast
10:56 PM 39.9 °F 32.9 °F 33.1 °F 77% 30.03 in 10.0 mi North 11.5 mph 20.7 mph N/A   Overcast
11:56 PM 39.9 °F 33.9 °F 33.1 °F 77% 30.01 in 10.0 mi NNE 9.2 mph 17.3 mph N/A   Overcast